logo tempoitalia

Diretta Meteo George-Victorvi, Stati Uniti (USA)domenica 30 agosto ore 23:35

Mappa
Sereno 23 °C Sereno 24 Ore: T.min 21 T.max 37
Ponente Sud/Sud-Est Km/h 14.8 Punto di rugiada: 11 °C Umidità: 46% Visibilità: 10 Km
Il sole sorge alle: 06:21 Il sole tramonta alle: 19:18
30 Agosto 2026 23:35 tempo osservato: Sereno Sereno 23 46 1015 vento: Nord S/SE 14.8
30 Agosto 2026 23:10 tempo osservato: Sereno Sereno 23 46 1015 vento: Nord S 9.3
30 Agosto 2026 22:55 tempo osservato: Sereno Sereno 24 43 1015 vento: Nord S 11.1
30 Agosto 2026 22:35 tempo osservato: Sereno Sereno 25 38 1015 vento: Nord S 7.4
30 Agosto 2026 22:10 tempo osservato: Sereno Sereno 25 33 1015 vento: Nord S 13
30 Agosto 2026 21:55 tempo osservato: Sereno Sereno 26 31 1015 vento: Nord S 18.5
30 Agosto 2026 21:35 tempo osservato: Sereno Sereno 26 29 1015 vento: Nord S 11.1
30 Agosto 2026 21:10 tempo osservato: Sereno Sereno 27 28 1015 vento: Nord N 0
30 Agosto 2026 20:55 tempo osservato: Sereno Sereno 27 26 1015 vento: Nord S 11.1
30 Agosto 2026 20:35 tempo osservato: Sereno Sereno 28 23 1014 vento: Nord SO 9.3
30 Agosto 2026 20:10 tempo osservato: Sereno Sereno 29 18 1014 vento: Nord S 20.3
30 Agosto 2026 19:55 tempo osservato: Sereno Sereno 29 17 1014 vento: Nord SO 11.1
30 Agosto 2026 19:35 tempo osservato: Sereno Sereno 29 20 1014 vento: Nord S 20.3
30 Agosto 2026 19:10 tempo osservato: Sereno Sereno 30 17 1013 vento: Nord S 31.5
30 Agosto 2026 18:55 tempo osservato: Sereno Sereno 31 18 1013 vento: Nord S 35.2
30 Agosto 2026 18:35 tempo osservato: Sereno Sereno 32 19 1013 vento: Nord S 35.2
30 Agosto 2026 18:10 tempo osservato: Sereno Sereno 33 19 1013 vento: Nord S 38.8
30 Agosto 2026 17:55 tempo osservato: Sereno Sereno 33 21 1013 vento: Nord S 33.3
30 Agosto 2026 17:35 tempo osservato: Sereno Sereno 33 19 1012 vento: Nord S/SE 46.3
30 Agosto 2026 17:10 tempo osservato: Sereno Sereno 34 17 1012 vento: Nord S/SE 42.6
30 Agosto 2026 16:55 tempo osservato: Sereno Sereno 35 15 1012 vento: Nord S/SE 40.7
30 Agosto 2026 16:30 tempo osservato: Sereno Sereno 36 15 1012 vento: Nord S/SE 35.2
30 Agosto 2026 16:15 tempo osservato: Sereno Sereno 35 16 1012 vento: Nord S/SE 33.3
30 Agosto 2026 15:55 tempo osservato: Sereno Sereno 35 19 1013 vento: Nord S/SE 37
30 Agosto 2026 15:35 tempo osservato: Sereno Sereno 36 18 1013 vento: Nord S/SE 35.2
30 Agosto 2026 15:15 tempo osservato: Sereno Sereno 36 18 1014 vento: Nord S/SE 33.3
30 Agosto 2026 14:55 tempo osservato: Sereno Sereno 36 18 1014 vento: Nord S 22.2
30 Agosto 2026 14:30 tempo osservato: Foschia Foschia 37 15 1014 vento: Nord S/SO 18.5
30 Agosto 2026 14:15 tempo osservato: Sereno Sereno 36 16 1014 vento: Nord N 13
30 Agosto 2026 13:55 tempo osservato: Sereno Sereno 36 15 1015 vento: Nord N 0
30 Agosto 2026 13:30 tempo osservato: Sereno Sereno 35 16 1015 vento: Nord S 18.5
30 Agosto 2026 13:15 tempo osservato: Sereno Sereno 35 17 1015 vento: Nord SE 13
30 Agosto 2026 12:55 tempo osservato: Sereno Sereno 34 17 1015 vento: Nord N 0
30 Agosto 2026 12:30 tempo osservato: Sereno Sereno 34 17 1015 vento: Nord N 0
30 Agosto 2026 12:15 tempo osservato: Sereno Sereno 34 16 1015 vento: Nord N 5.5
30 Agosto 2026 11:55 tempo osservato: Sereno Sereno 34 16 1016 vento: Nord O 11.1
30 Agosto 2026 11:30 tempo osservato: Sereno Sereno 33 16 1016 vento: Nord O 13
30 Agosto 2026 11:15 tempo osservato: Sereno Sereno 33 16 1016 vento: Nord O 16.7
30 Agosto 2026 10:45 tempo osservato: Sereno Sereno 32 19 1016 vento: Nord N 9.3
30 Agosto 2026 10:30 tempo osservato: Sereno Sereno 31 25 1016 vento: Nord N 7.4
30 Agosto 2026 10:15 tempo osservato: Sereno Sereno 31 27 1016 vento: Nord N 7.4
30 Agosto 2026 09:55 tempo osservato: Sereno Sereno 30 30 1016 vento: Nord SE 9.3
30 Agosto 2026 09:30 tempo osservato: Sereno Sereno 29 32 1016 vento: Nord S 9.3
30 Agosto 2026 09:15 tempo osservato: Sereno Sereno 28 37 1016 vento: Nord SE 7.4
30 Agosto 2026 08:55 tempo osservato: Sereno Sereno 27 39 1016 vento: Nord N 5.5
30 Agosto 2026 08:35 tempo osservato: Sereno Sereno 26 41 1016 vento: Nord S 9.3
30 Agosto 2026 08:15 tempo osservato: Sereno Sereno 24 47 1016 vento: Nord S/SO 7.4
30 Agosto 2026 07:55 tempo osservato: Sereno Sereno 24 47 1016 vento: Nord S 9.3
30 Agosto 2026 07:30 tempo osservato: Sereno Sereno 23 46 1016 vento: Nord S 9.3
30 Agosto 2026 07:15 tempo osservato: Sereno Sereno 22 49 1016 vento: Nord SO 9.3
30 Agosto 2026 06:55 tempo osservato: Sereno Sereno 22 46 1016 vento: Nord S/SO 7.4
30 Agosto 2026 06:30 tempo osservato: Sereno Sereno 22 43 1016 vento: Nord S/SO 13
30 Agosto 2026 06:15 tempo osservato: Sereno Sereno 21 46 1016 vento: Nord S 13
30 Agosto 2026 05:55 tempo osservato: Sereno Sereno 21 46 1016 vento: Nord S 11.1
30 Agosto 2026 05:30 tempo osservato: Foschia Foschia 22 43 1016 vento: Nord S/SO 7.4
30 Agosto 2026 05:15 tempo osservato: Molto Nuvoloso Molto Nuvoloso 22 43 1016 vento: Nord S/SO 9.3
30 Agosto 2026 04:55 tempo osservato: Molto Nuvoloso Molto Nuvoloso 23 43 1016 vento: Nord SO 9.3
30 Agosto 2026 04:30 tempo osservato: Molto Nuvoloso Molto Nuvoloso 22 49 1016 vento: Nord S/SO 11.1
30 Agosto 2026 04:15 tempo osservato: Molto Nuvoloso Molto Nuvoloso 23 46 1015 vento: Nord S/SO 13
30 Agosto 2026 03:55 tempo osservato: Nuvoloso Nuvoloso 22 49 1015 vento: Nord S/SO 11.1
30 Agosto 2026 03:30 tempo osservato: Sereno Sereno 22 53 1015 vento: Nord S 9.3
30 Agosto 2026 03:15 tempo osservato: Sereno Sereno 22 53 1015 vento: Nord S 9.3
30 Agosto 2026 02:55 tempo osservato: Sereno Sereno 23 49 1015 vento: Nord S/SO 9.3
30 Agosto 2026 02:30 tempo osservato: Sereno Sereno 23 53 1015 vento: Nord SO 11.1
30 Agosto 2026 02:15 tempo osservato: Sereno Sereno 24 50 1015 vento: Nord S/SO 11.1
30 Agosto 2026 01:55 tempo osservato: Sereno Sereno 24 50 1015 vento: Nord S 13
30 Agosto 2026 01:30 tempo osservato: Sereno Sereno 24 50 1015 vento: Nord S 13
30 Agosto 2026 01:15 tempo osservato: Sereno Sereno 24 47 1015 vento: Nord S/SO 9.3
30 Agosto 2026 00:55 tempo osservato: Sereno Sereno 23 49 1015 vento: Nord SO 11.1
30 Agosto 2026 00:30 tempo osservato: Sereno Sereno 24 47 1016 vento: Nord SO 9.3
30 Agosto 2026 00:15 tempo osservato: Sereno Sereno 24 47 1016 vento: Nord SO 9.3
29 Agosto 2026 23:55 tempo osservato: Sereno Sereno 24 47 1016 vento: Nord N 5.5
29 Agosto 2026 23:35 tempo osservato: Sereno Sereno 25 44 1015 vento: Nord SO 9.3